2020 JK3
ephemeris date magn radius delta ra dec elong phase
Today5 Sep 202630.51.906 AU2.723 AU09h04m+18°34'29.1°14.9°
2020 JK3 - 2026-09-05
astro.vanbuitenen.nl


 
-1 year
-1 month
-1 day
Now
+1 day
+1 month
+1 year

The interactive orbit chart above shows the body's path through the solar system and its position at the given date. Green and blue lines are shown perpendicular to the ecliptic plane: Green if the path is above the ecliptic plane, blue if it is below. (Left-click and drag to rotate the view; Right-click and drag to move the view; Use scroll wheel to zoom in our out.)

The orbital elements of 2020 JK3 are:

            e (Eccentricity)                : 0.3811809
            a (Semimajor axis)              : 1.7275303
            i (Inclination)                 : 2.53657
            Ω (Longitude of ascending node) : 38.06077
            ω (Argument of perihelion)      : 206.29633
            M (Mean anomaly)                : 237.14243
            Epoch                           : 2026 Jun 09

            L (Longitude of perihelion)     : 64.33480
            B (Latitude of perihelion)      : -1.12344
            P (Orbital period in years)     : 2.27            
        

The light curve chart below shows the estimated development of the minor planet's magnitude.


The all-sky chart below shows the path of the minor planet over the same period as the light curve. The current position is marked yellow.





The following chart shows the path of the minor planet in the next few days. The field of view is optimized for (~10x50) binoculars and finderscopes.




Ephemerides:
Date       Time       RA (2000)    DEC (2000)    delta   radius  elong  phase   PA    magn
2026-09-05 00:00 UT   09 04 07.6   +18 34 36     2.723    1.906   29.1   14.9   290   30.5 
2026-09-05 02:51 UT   09 04 23.7   +18 33 29     2.721    1.905   29.1   14.9   290   30.5 
2026-09-06 00:00 UT   09 06 23.3   +18 25 11     2.713    1.901   29.5   15.1   290   30.5 
2026-09-07 00:00 UT   09 08 39.2   +18 15 39     2.703    1.897   29.9   15.4   290   30.5 
2026-09-08 00:00 UT   09 10 55.2   +18 06 00     2.693    1.892   30.3   15.6   290   30.5 
2026-09-09 00:00 UT   09 13 11.4   +17 56 15     2.682    1.888   30.7   15.8   290   30.5 
2026-09-10 00:00 UT   09 15 27.7   +17 46 22     2.672    1.884   31.1   16.1   290   30.5 
2026-09-11 00:00 UT   09 17 44.1   +17 36 22     2.662    1.879   31.5   16.3   290   30.5 
2026-09-12 00:00 UT   09 20 00.7   +17 26 15     2.652    1.875   31.9   16.5   291   30.5 
2026-09-13 00:00 UT   09 22 17.5   +17 16 01     2.641    1.870   32.4   16.7   291   30.5 
2026-09-14 00:00 UT   09 24 34.3   +17 05 40     2.631    1.866   32.8   17.0   291   30.5 
2026-09-15 00:00 UT   09 26 51.4   +16 55 12     2.620    1.861   33.2   17.2   291   30.4 
2026-09-16 00:00 UT   09 29 08.6   +16 44 37     2.609    1.857   33.6   17.4   291   30.4 
2026-09-17 00:00 UT   09 31 25.9   +16 33 55     2.599    1.852   34.0   17.6   291   30.4 
2026-09-18 00:00 UT   09 33 43.4   +16 23 06     2.588    1.847   34.3   17.9   291   30.4 
2026-09-19 00:00 UT   09 36 01.1   +16 12 11     2.577    1.843   34.7   18.1   291   30.4 


    Terminology:
            
    delta:  distance between minor planet and earth in AU
    radius: distance between minor planet and sun in AU
    magn:   magnitude (brightness) estimate    
    ra:     right ascension in hours (24h = 360deg)
    dec:    declination in degrees
    elong:  elongation in degrees (angle sun-earth-minor planet)    
    phase:  phase angle in degrees (angle sun-minor planet-earth)        
    AU:     Astronomical Unit (mean distance between earth and sun: 149597870.7 km
    

Orbital elements provided by the MPC (Minor Planet Center).
Calculations by a modified version of AAPlus, a C# implementation of the AA+ project by PJ Naughter from the algorithms presented in the book "Astronomical Algorithms" by Jean Meeus.
NGC2000 dso catalog and star labels from VizieR as provided by the Strasbourg astronomical Data Center.
Tycho2 catalog from the ESO archive.